Time,TemperatureF,DewpointF,PressureIn,WindDirection,WindDirectionDegrees,WindSpeedMPH,WindSpeedGustMPH,Humidity,HourlyPrecipIn,Conditions,Clouds,dailyrainin,SolarRadiationWatts/m^2,SoftwareType,DateUTC
2013-05-25 00:01:00,50.4,46.7,30.06,West,270,3.0,7.0,87,0.00,,,0.00,0.00,VWS V14.01,2013-05-25 07:01:00,
2013-05-25 00:06:00,50.3,46.6,30.06,WNW,285,5.0,7.0,87,0.00,,,0.00,0.00,VWS V14.01,2013-05-25 07:06:00,
2013-05-25 00:11:00,50.3,46.6,30.06,WSW,247,3.0,4.0,87,0.00,,,0.00,0.00,VWS V14.01,2013-05-25 07:11:00,
2013-05-25 00:16:00,50.3,46.6,30.06,WSW,256,4.0,5.0,87,0.00,,,0.00,0.00,VWS V14.01,2013-05-25 07:16:00,
2013-05-25 00:21:00,50.4,46.7,30.06,West,260,1.0,6.0,87,0.00,,,0.00,0.00,VWS V14.01,2013-05-25 07:21:00,
2013-05-25 00:26:00,50.3,46.6,30.06,West,270,3.0,6.0,87,0.00,,,0.00,0.00,VWS V14.01,2013-05-25 07:26:00,
2013-05-25 00:31:00,50.3,46.9,30.06,West,274,3.0,5.0,88,0.00,,,0.00,0.00,VWS V14.01,2013-05-25 07:31:00,
2013-05-25 00:36:00,50.3,46.9,30.06,West,275,3.0,6.0,88,0.00,,,0.00,0.00,VWS V14.01,2013-05-25 07:36:00,
2013-05-25 00:41:00,50.3,46.9,30.06,WSW,258,2.0,4.0,88,0.00,,,0.00,0.00,VWS V14.01,2013-05-25 07:41:00,
2013-05-25 00:46:00,50.3,46.9,30.06,West,260,4.0,5.0,88,0.00,,,0.00,0.00,VWS V14.01,2013-05-25 07:46:00,
2013-05-25 00:51:00,50.3,46.9,30.06,WSW,256,3.0,4.0,88,0.00,,,0.00,0.00,VWS V14.01,2013-05-25 07:51:00,
2013-05-25 00:56:00,50.3,46.9,30.06,WSW,245,2.0,4.0,88,0.00,,,0.00,0.00,VWS V14.01,2013-05-25 07:56:00,
2013-05-25 01:01:00,50.2,46.8,30.06,WSW,250,5.0,5.0,88,0.00,,,0.00,0.00,VWS V14.01,2013-05-25 08:01:00,
2013-05-25 01:06:00,50.2,46.8,30.06,West,264,0.0,5.0,88,0.00,,,0.00,0.00,VWS V14.01,2013-05-25 08:06:00,
2013-05-25 01:11:00,50.2,46.8,30.06,West,278,3.0,4.0,88,0.00,,,0.00,0.00,VWS V14.01,2013-05-25 08:11:00,
2013-05-25 01:16:00,50.2,46.8,30.06,West,276,3.0,5.0,88,0.00,,,0.00,0.00,VWS V14.01,2013-05-25 08:16:00,
2013-05-25 01:21:00,50.1,46.7,30.06,West,274,1.0,4.0,88,0.00,,,0.00,0.00,VWS V14.01,2013-05-25 08:21:00,
2013-05-25 01:26:00,50.1,46.7,30.06,West,270,4.0,5.0,88,0.00,,,0.00,0.00,VWS V14.01,2013-05-25 08:26:00,
2013-05-25 01:31:00,50.1,46.7,30.06,WNW,284,2.0,5.0,88,0.00,,,0.00,0.00,VWS V14.01,2013-05-25 08:31:00,
2013-05-25 01:36:00,50.1,46.7,30.06,NW,304,3.0,5.0,88,0.00,,,0.00,0.00,VWS V14.01,2013-05-25 08:36:00,
2013-05-25 01:41:00,50.1,47.0,30.06,West,264,1.0,5.0,89,0.00,,,0.00,0.00,VWS V14.01,2013-05-25 08:41:00,
2013-05-25 01:46:00,50.1,47.0,30.06,West,267,2.0,5.0,89,0.00,,,0.00,0.00,VWS V14.01,2013-05-25 08:46:00,
2013-05-25 01:51:00,50.1,47.0,30.06,West,261,0.0,2.0,89,0.00,,,0.00,0.00,VWS V14.01,2013-05-25 08:51:00,
2013-05-25 01:56:00,50.2,47.1,30.06,West,262,1.0,5.0,89,0.00,,,0.00,0.00,VWS V14.01,2013-05-25 08:56:00,
2013-05-25 02:02:00,50.2,47.1,30.06,West,262,2.0,2.0,89,0.00,,,0.00,0.00,VWS V14.01,2013-05-25 09:02:00,
2013-05-25 02:07:00,50.3,47.2,30.06,West,275,2.0,5.0,89,0.00,,,0.00,0.00,VWS V14.01,2013-05-25 09:07:00,
2013-05-25 02:12:00,50.4,47.3,30.06,WNW,285,1.0,4.0,89,0.00,,,0.00,0.00,VWS V14.01,2013-05-25 09:12:00,
2013-05-25 02:17:00,50.5,47.4,30.06,WSW,237,4.0,6.0,89,0.00,,,0.00,0.00,VWS V14.01,2013-05-25 09:17:00,
2013-05-25 02:22:00,50.5,47.4,30.06,SW,236,3.0,4.0,89,0.00,,,0.00,0.00,VWS V14.01,2013-05-25 09:22:00,
2013-05-25 02:27:00,50.5,47.4,30.06,West,277,0.0,5.0,89,0.00,,,0.00,0.00,VWS V14.01,2013-05-25 09:27:00,
2013-05-25 02:32:00,50.5,47.1,30.06,West,272,2.0,5.0,88,0.00,,,0.00,0.00,VWS V14.01,2013-05-25 09:32:00,
2013-05-25 02:37:00,50.5,47.1,30.06,West,272,0.0,5.0,88,0.00,,,0.00,0.00,VWS V14.01,2013-05-25 09:37:00,
2013-05-25 02:42:00,50.5,47.1,30.06,West,266,1.0,5.0,88,0.00,,,0.00,0.00,VWS V14.01,2013-05-25 09:42:00,
2013-05-25 02:47:00,50.6,47.2,30.06,WNW,289,1.0,5.0,88,0.00,,,0.00,0.00,VWS V14.01,2013-05-25 09:47:00,
2013-05-25 02:52:00,50.6,47.2,30.06,WSW,257,4.0,6.0,88,0.00,,,0.00,0.00,VWS V14.01,2013-05-25 09:52:00,
2013-05-25 02:57:00,50.6,46.9,30.06,NNW,337,1.0,6.0,87,0.00,,,0.00,0.00,VWS V14.01,2013-05-25 09:57:00,
2013-05-25 03:02:00,50.6,46.9,30.06,WSW,256,2.0,3.0,87,0.00,,,0.00,0.00,VWS V14.01,2013-05-25 10:02:00,
2013-05-25 03:07:00,50.7,47.0,30.06,West,274,2.0,6.0,87,0.00,,,0.00,0.00,VWS V14.01,2013-05-25 10:07:00,
2013-05-25 03:12:00,50.7,47.0,30.06,West,274,2.0,3.0,87,0.00,,,0.00,0.00,VWS V14.01,2013-05-25 10:12:00,
2013-05-25 03:17:00,50.8,47.1,30.06,WNW,282,2.0,4.0,87,0.00,,,0.00,0.00,VWS V14.01,2013-05-25 10:17:00,
2013-05-25 03:22:00,50.7,47.0,30.06,NW,304,6.0,6.0,87,0.00,,,0.00,0.00,VWS V14.01,2013-05-25 10:22:00,
2013-05-25 03:27:00,50.8,47.1,30.06,WNW,291,1.0,6.0,87,0.00,,,0.00,0.00,VWS V14.01,2013-05-25 10:27:00,
2013-05-25 03:32:00,50.8,47.1,30.06,WNW,289,4.0,4.0,87,0.00,,,0.00,0.00,VWS V14.01,2013-05-25 10:32:00,
2013-05-25 03:37:00,50.9,47.2,30.06,West,281,3.0,6.0,87,0.00,,,0.00,0.00,VWS V14.01,2013-05-25 10:37:00,
2013-05-25 03:42:00,50.9,47.2,30.05,West,276,2.0,3.0,87,0.00,,,0.00,0.00,VWS V14.01,2013-05-25 10:42:00,
2013-05-25 03:47:00,50.9,47.2,30.06,WNW,295,3.0,4.0,87,0.00,,,0.00,0.00,VWS V14.01,2013-05-25 10:47:00,
2013-05-25 03:52:00,50.9,47.2,30.05,West,266,4.0,5.0,87,0.00,,,0.00,0.00,VWS V14.01,2013-05-25 10:52:00,
2013-05-25 03:57:00,50.9,46.9,30.06,WNW,289,4.0,5.0,86,0.00,,,0.00,0.00,VWS V14.01,2013-05-25 10:57:00,
2013-05-25 04:02:00,51.0,47.0,30.06,West,271,2.0,4.0,86,0.00,,,0.00,0.00,VWS V14.01,2013-05-25 11:02:00,
2013-05-25 04:07:00,51.0,47.0,30.05,West,279,0.0,4.0,86,0.00,,,0.00,0.00,VWS V14.01,2013-05-25 11:07:00,
2013-05-25 04:12:00,51.1,47.4,30.05,NW,315,3.0,4.0,87,0.00,,,0.00,0.00,VWS V14.01,2013-05-25 11:12:00,
2013-05-25 04:17:00,51.1,47.4,30.06,West,277,5.0,5.0,87,0.00,,,0.00,0.00,VWS V14.01,2013-05-25 11:17:00,
2013-05-25 04:22:00,51.0,47.3,30.06,West,277,2.0,4.0,87,0.00,,,0.00,0.00,VWS V14.01,2013-05-25 11:22:00,
2013-05-25 04:27:00,51.0,47.3,30.05,WNW,301,0.0,4.0,87,0.00,,,0.00,0.00,VWS V14.01,2013-05-25 11:27:00,
2013-05-25 04:32:00,51.0,47.0,30.05,NW,309,2.0,5.0,86,0.00,,,0.00,0.00,VWS V14.01,2013-05-25 11:32:00,
2013-05-25 04:37:00,51.0,47.0,30.05,West,264,3.0,6.0,86,0.00,,,0.00,0.00,VWS V14.01,2013-05-25 11:37:00,
2013-05-25 04:42:00,51.0,47.0,30.06,WSW,245,0.0,3.0,86,0.00,,,0.00,0.00,VWS V14.01,2013-05-25 11:42:00,
2013-05-25 04:47:00,51.0,47.0,30.06,WNW,295,3.0,5.0,86,0.00,,,0.00,0.00,VWS V14.01,2013-05-25 11:47:00,
2013-05-25 04:52:00,51.0,47.0,30.06,West,272,2.0,5.0,86,0.00,,,0.00,0.00,VWS V14.01,2013-05-25 11:52:00,
2013-05-25 04:57:00,51.0,47.3,30.06,West,273,3.0,5.0,87,0.00,,,0.00,0.00,VWS V14.01,2013-05-25 11:57:00,
2013-05-25 05:02:00,51.0,47.3,30.06,WNW,295,3.0,4.0,87,0.00,,,0.00,0.00,VWS V14.01,2013-05-25 12:02:00,
2013-05-25 05:07:00,51.0,47.0,30.06,WNW,291,0.0,4.0,86,0.00,,,0.00,0.00,VWS V14.01,2013-05-25 12:07:00,
2013-05-25 05:12:00,51.0,47.3,30.06,NNW,331,5.0,5.0,87,0.00,,,0.00,0.00,VWS V14.01,2013-05-25 12:12:00,
2013-05-25 05:17:00,51.0,47.3,30.06,West,280,2.0,5.0,87,0.00,,,0.00,0.00,VWS V14.01,2013-05-25 12:17:00,
2013-05-25 05:22:00,51.0,47.3,30.06,NW,308,1.0,3.0,87,0.00,,,0.00,0.00,VWS V14.01,2013-05-25 12:22:00,
2013-05-25 05:27:00,51.0,47.3,30.06,WNW,300,0.0,4.0,87,0.00,,,0.00,0.00,VWS V14.01,2013-05-25 12:27:00,
2013-05-25 05:32:00,51.0,47.3,30.06,West,277,3.0,5.0,87,0.00,,,0.00,0.00,VWS V14.01,2013-05-25 12:32:00,
2013-05-25 05:37:00,51.0,47.3,30.06,West,259,4.0,5.0,87,0.00,,,0.00,0.00,VWS V14.01,2013-05-25 12:37:00,
2013-05-25 05:42:00,51.0,47.0,30.06,WNW,283,3.0,5.0,86,0.00,,,0.00,0.00,VWS V14.01,2013-05-25 12:42:00,
2013-05-25 05:47:00,51.0,47.0,30.06,WNW,294,3.0,5.0,86,0.00,,,0.00,0.00,VWS V14.01,2013-05-25 12:47:00,
2013-05-25 05:52:00,51.0,47.0,30.06,WNW,285,3.0,4.0,86,0.00,,,0.00,0.00,VWS V14.01,2013-05-25 12:52:00,
2013-05-25 05:57:00,50.9,46.9,30.06,NW,304,2.0,5.0,86,0.00,,,0.00,0.00,VWS V14.01,2013-05-25 12:57:00,
2013-05-25 06:02:00,50.8,46.8,30.06,West,279,1.0,5.0,86,0.00,,,0.00,5.00,VWS V14.01,2013-05-25 13:02:00,
2013-05-25 06:07:00,50.8,46.8,30.06,West,278,1.0,5.0,86,0.00,,,0.00,9.00,VWS V14.01,2013-05-25 13:07:00,
2013-05-25 06:12:00,50.9,46.9,30.06,SSW,208,1.0,2.0,86,0.00,,,0.00,12.00,VWS V14.01,2013-05-25 13:12:00,
2013-05-25 06:17:00,51.0,47.0,30.06,WNW,291,3.0,5.0,86,0.00,,,0.00,16.00,VWS V14.01,2013-05-25 13:17:00,
2013-05-25 06:22:00,51.1,47.4,30.06,WSW,247,4.0,4.0,87,0.00,,,0.00,26.00,VWS V14.01,2013-05-25 13:22:00,
2013-05-25 06:27:00,51.1,47.1,30.07,WSW,251,3.0,5.0,86,0.00,,,0.00,39.00,VWS V14.01,2013-05-25 13:27:00,
2013-05-25 06:32:00,51.2,47.2,30.07,West,274,3.0,6.0,86,0.00,,,0.00,39.00,VWS V14.01,2013-05-25 13:32:00,
2013-05-25 06:37:00,51.2,47.2,30.07,NW,318,3.0,8.0,86,0.00,,,0.00,56.00,VWS V14.01,2013-05-25 13:37:00,
2013-05-25 06:42:00,51.3,47.3,30.07,WNW,290,1.0,5.0,86,0.00,,,0.00,67.00,VWS V14.01,2013-05-25 13:42:00,
2013-05-25 06:47:00,51.4,47.4,30.07,West,269,4.0,5.0,86,0.00,,,0.00,77.00,VWS V14.01,2013-05-25 13:47:00,
2013-05-25 06:52:00,51.5,47.5,30.07,West,271,3.0,7.0,86,0.00,,,0.00,53.00,VWS V14.01,2013-05-25 13:52:00,
2013-05-25 06:57:00,51.5,47.5,30.07,West,280,4.0,7.0,86,0.00,,,0.00,65.00,VWS V14.01,2013-05-25 13:57:00,
2013-05-25 07:02:00,51.5,47.5,30.07,West,268,4.0,6.0,86,0.00,,,0.00,69.00,VWS V14.01,2013-05-25 14:02:00,
2013-05-25 07:07:00,51.6,47.6,30.07,WNW,293,2.0,8.0,86,0.00,,,0.00,90.00,VWS V14.01,2013-05-25 14:07:00,
2013-05-25 07:12:00,51.7,47.3,30.07,NW,311,3.0,8.0,85,0.00,,,0.00,90.00,VWS V14.01,2013-05-25 14:12:00,
2013-05-25 07:17:00,51.7,47.3,30.07,West,269,5.0,9.0,85,0.00,,,0.00,86.00,VWS V14.01,2013-05-25 14:17:00,
2013-05-25 07:23:00,51.8,47.4,30.07,WNW,286,4.0,6.0,85,0.00,,,0.00,95.00,VWS V14.01,2013-05-25 14:23:00,
2013-05-25 07:28:00,51.9,47.5,30.08,West,270,1.0,6.0,85,0.00,,,0.00,97.00,VWS V14.01,2013-05-25 14:28:00,
2013-05-25 07:33:00,52.0,47.6,30.08,NNW,331,3.0,7.0,85,0.00,,,0.00,86.00,VWS V14.01,2013-05-25 14:33:00,
2013-05-25 07:38:00,52.1,47.7,30.08,WNW,299,2.0,7.0,85,0.00,,,0.00,107.00,VWS V14.01,2013-05-25 14:38:00,
2013-05-25 07:43:00,52.1,47.4,30.08,West,274,3.0,8.0,84,0.00,,,0.00,153.00,VWS V14.01,2013-05-25 14:43:00,
2013-05-25 07:48:00,52.1,47.4,30.08,West,272,6.0,9.0,84,0.00,,,0.00,185.00,VWS V14.01,2013-05-25 14:48:00,
2013-05-25 07:53:00,52.3,47.6,30.08,West,277,4.0,5.0,84,0.00,,,0.00,141.00,VWS V14.01,2013-05-25 14:53:00,
2013-05-25 07:58:00,52.5,47.8,30.08,NW,306,1.0,7.0,84,0.00,,,0.00,192.00,VWS V14.01,2013-05-25 14:58:00,
2013-05-25 08:03:00,52.7,47.7,30.08,West,274,2.0,5.0,83,0.00,,,0.00,165.00,VWS V14.01,2013-05-25 15:03:00,
2013-05-25 08:08:00,52.8,47.8,30.08,West,260,8.0,8.0,83,0.00,,,0.00,338.00,VWS V14.01,2013-05-25 15:08:00,
2013-05-25 08:13:00,53.0,47.7,30.08,NW,307,2.0,8.0,82,0.00,,,0.00,199.00,VWS V14.01,2013-05-25 15:13:00,
2013-05-25 08:18:00,53.0,47.7,30.08,WSW,250,2.0,9.0,82,0.00,,,0.00,185.00,VWS V14.01,2013-05-25 15:18:00,
2013-05-25 08:23:00,53.1,47.8,30.08,WNW,287,2.0,6.0,82,0.00,,,0.00,178.00,VWS V14.01,2013-05-25 15:23:00,
2013-05-25 08:28:00,53.2,47.9,30.08,SW,230,2.0,7.0,82,0.00,,,0.00,200.00,VWS V14.01,2013-05-25 15:28:00,
2013-05-25 08:33:00,53.2,47.9,30.08,North,351,2.0,8.0,82,0.00,,,0.00,178.00,VWS V14.01,2013-05-25 15:33:00,
2013-05-25 08:38:00,53.3,48.0,30.08,West,262,4.0,8.0,82,0.00,,,0.00,148.00,VWS V14.01,2013-05-25 15:38:00,
2013-05-25 08:43:00,53.2,47.9,30.08,West,274,2.0,5.0,82,0.00,,,0.00,200.00,VWS V14.01,2013-05-25 15:43:00,
2013-05-25 08:48:00,53.2,47.5,30.08,West,279,2.0,10.0,81,0.00,,,0.00,258.00,VWS V14.01,2013-05-25 15:48:00,
2013-05-25 08:53:00,53.4,47.7,30.08,WSW,243,5.0,10.0,81,0.00,,,0.00,294.00,VWS V14.01,2013-05-25 15:53:00,
2013-05-25 08:58:00,53.6,48.2,30.08,WNW,291,2.0,10.0,82,0.00,,,0.00,265.00,VWS V14.01,2013-05-25 15:58:00,
2013-05-25 09:03:00,53.9,48.2,30.08,West,274,2.0,8.0,81,0.00,,,0.00,311.00,VWS V14.01,2013-05-25 16:03:00,
2013-05-25 09:08:00,54.0,48.0,30.08,NW,316,4.0,8.0,80,0.00,,,0.00,425.00,VWS V14.01,2013-05-25 16:08:00,
2013-05-25 09:13:00,54.4,48.4,30.09,NW,305,2.0,8.0,80,0.00,,,0.00,244.00,VWS V14.01,2013-05-25 16:13:00,
2013-05-25 09:18:00,54.7,48.7,30.09,West,267,6.0,8.0,80,0.00,,,0.00,663.00,VWS V14.01,2013-05-25 16:18:00,
2013-05-25 09:23:00,54.9,48.9,30.09,WSW,255,4.0,8.0,80,0.00,,,0.00,397.00,VWS V14.01,2013-05-25 16:23:00,
2013-05-25 09:28:00,55.3,48.9,30.09,SW,234,2.0,8.0,79,0.00,,,0.00,780.00,VWS V14.01,2013-05-25 16:28:00,
2013-05-25 09:33:00,55.4,49.0,30.09,West,260,2.0,6.0,79,0.00,,,0.00,601.00,VWS V14.01,2013-05-25 16:33:00,
2013-05-25 09:38:00,55.3,48.9,30.09,NW,318,3.0,9.0,79,0.00,,,0.00,538.00,VWS V14.01,2013-05-25 16:38:00,
2013-05-25 09:43:00,55.3,48.6,30.09,WSW,239,2.0,6.0,78,0.00,,,0.00,403.00,VWS V14.01,2013-05-25 16:43:00,
2013-05-25 09:48:00,55.1,48.4,30.09,West,279,5.0,7.0,78,0.00,,,0.00,415.00,VWS V14.01,2013-05-25 16:48:00,
2013-05-25 09:53:00,55.1,48.7,30.09,NW,305,6.0,8.0,79,0.00,,,0.00,345.00,VWS V14.01,2013-05-25 16:53:00,
2013-05-25 09:58:00,54.8,48.4,30.09,WSW,257,4.0,8.0,79,0.00,,,0.00,686.00,VWS V14.01,2013-05-25 16:58:00,
2013-05-25 10:03:00,55.2,49.2,30.09,West,273,7.0,8.0,80,0.00,,,0.00,823.00,VWS V14.01,2013-05-25 17:03:00,
2013-05-25 10:08:00,55.4,49.0,30.09,WSW,258,4.0,10.0,79,0.00,,,0.00,448.00,VWS V14.01,2013-05-25 17:08:00,
2013-05-25 10:13:00,55.6,49.2,30.09,NW,312,2.0,9.0,79,0.00,,,0.00,448.00,VWS V14.01,2013-05-25 17:13:00,
2013-05-25 10:18:00,55.9,49.2,30.09,WNW,299,7.0,9.0,78,0.00,,,0.00,492.00,VWS V14.01,2013-05-25 17:18:00,
2013-05-25 10:23:00,55.5,49.1,30.09,NW,317,4.0,6.0,79,0.00,,,0.00,464.00,VWS V14.01,2013-05-25 17:23:00,
2013-05-25 10:28:00,55.5,49.1,30.09,NW,317,3.0,7.0,79,0.00,,,0.00,338.00,VWS V14.01,2013-05-25 17:28:00,
2013-05-25 10:33:00,55.4,48.7,30.09,WNW,288,6.0,8.0,78,0.00,,,0.00,461.00,VWS V14.01,2013-05-25 17:33:00,
2013-05-25 10:38:00,55.5,49.4,30.09,West,260,2.0,8.0,80,0.00,,,0.00,652.00,VWS V14.01,2013-05-25 17:38:00,
2013-05-25 10:43:00,55.8,49.4,30.09,West,270,5.0,6.0,79,0.00,,,0.00,490.00,VWS V14.01,2013-05-25 17:43:00,
2013-05-25 10:48:00,56.0,49.2,30.10,WNW,289,4.0,7.0,78,0.00,,,0.00,541.00,VWS V14.01,2013-05-25 17:48:00,
2013-05-25 10:53:00,55.6,48.9,30.10,WNW,285,8.0,9.0,78,0.00,,,0.00,610.00,VWS V14.01,2013-05-25 17:53:00,
2013-05-25 10:58:00,55.6,49.2,30.10,West,274,4.0,9.0,79,0.00,,,0.00,527.00,VWS V14.01,2013-05-25 17:58:00,
2013-05-25 11:03:00,55.8,49.0,30.10,West,277,3.0,8.0,78,0.00,,,0.00,462.00,VWS V14.01,2013-05-25 18:03:00,
2013-05-25 11:08:00,55.7,49.0,30.10,West,280,4.0,9.0,78,0.00,,,0.00,591.00,VWS V14.01,2013-05-25 18:08:00,
2013-05-25 11:13:00,55.9,49.2,30.10,WNW,289,3.0,7.0,78,0.00,,,0.00,564.00,VWS V14.01,2013-05-25 18:13:00,
2013-05-25 11:18:00,56.3,49.2,30.10,WSW,255,1.0,7.0,77,0.00,,,0.00,615.00,VWS V14.01,2013-05-25 18:18:00,
2013-05-25 11:23:00,56.5,49.0,30.10,NNW,335,5.0,7.0,76,0.00,,,0.00,589.00,VWS V14.01,2013-05-25 18:23:00,
2013-05-25 11:28:00,56.2,48.8,30.10,WNW,284,3.0,7.0,76,0.00,,,0.00,497.00,VWS V14.01,2013-05-25 18:28:00,
2013-05-25 11:33:00,56.2,49.1,30.10,WSW,255,2.0,7.0,77,0.00,,,0.00,615.00,VWS V14.01,2013-05-25 18:33:00,
2013-05-25 11:38:00,56.5,49.0,30.10,NW,309,5.0,8.0,76,0.00,,,0.00,954.00,VWS V14.01,2013-05-25 18:38:00,
2013-05-25 11:43:00,56.6,49.1,30.10,WNW,282,6.0,10.0,76,0.00,,,0.00,988.00,VWS V14.01,2013-05-25 18:43:00,
2013-05-25 11:48:00,56.6,49.1,30.10,NW,324,5.0,10.0,76,0.00,,,0.00,946.00,VWS V14.01,2013-05-25 18:48:00,
2013-05-25 11:53:00,56.8,49.3,30.10,NW,325,2.0,9.0,76,0.00,,,0.00,851.00,VWS V14.01,2013-05-25 18:53:00,
2013-05-25 11:58:00,57.4,49.5,30.10,WNW,290,3.0,9.0,75,0.00,,,0.00,1021.00,VWS V14.01,2013-05-25 18:58:00,
2013-05-25 12:03:00,57.2,49.0,30.10,WNW,289,6.0,10.0,74,0.00,,,0.00,1021.00,VWS V14.01,2013-05-25 19:03:00,
2013-05-25 12:08:00,56.9,49.1,30.10,SW,235,7.0,10.0,75,0.00,,,0.00,1014.00,VWS V14.01,2013-05-25 19:08:00,
2013-05-25 12:13:00,57.0,49.2,30.11,West,274,3.0,10.0,75,0.00,,,0.00,1058.00,VWS V14.01,2013-05-25 19:13:00,
2013-05-25 12:19:00,57.0,49.2,30.10,West,280,6.0,11.0,75,0.00,,,0.00,983.00,VWS V14.01,2013-05-25 19:19:00,
2013-05-25 12:24:00,56.8,49.3,30.10,WNW,285,5.0,9.0,76,0.00,,,0.00,714.00,VWS V14.01,2013-05-25 19:24:00,
2013-05-25 12:29:00,56.9,49.4,30.10,WNW,287,7.0,9.0,76,0.00,,,0.00,956.00,VWS V14.01,2013-05-25 19:29:00,
2013-05-25 12:34:00,56.9,49.4,30.10,NNW,333,4.0,8.0,76,0.00,,,0.00,868.00,VWS V14.01,2013-05-25 19:34:00,
2013-05-25 12:39:00,57.2,49.4,30.10,NW,318,3.0,11.0,75,0.00,,,0.00,956.00,VWS V14.01,2013-05-25 19:39:00,
2013-05-25 12:44:00,57.3,49.5,30.10,SW,223,4.0,9.0,75,0.00,,,0.00,983.00,VWS V14.01,2013-05-25 19:44:00,
2013-05-25 12:49:00,57.6,49.8,30.11,WNW,297,8.0,9.0,75,0.00,,,0.00,984.00,VWS V14.01,2013-05-25 19:49:00,
2013-05-25 12:54:00,57.8,49.6,30.10,WNW,285,5.0,8.0,74,0.00,,,0.00,970.00,VWS V14.01,2013-05-25 19:54:00,
2013-05-25 12:59:00,57.3,49.1,30.10,WSW,243,6.0,11.0,74,0.00,,,0.00,967.00,VWS V14.01,2013-05-25 19:59:00,
2013-05-25 13:04:00,57.5,49.7,30.10,WNW,299,3.0,9.0,75,0.00,,,0.00,953.00,VWS V14.01,2013-05-25 20:04:00,
2013-05-25 13:09:00,57.6,49.4,30.11,West,273,4.0,9.0,74,0.00,,,0.00,954.00,VWS V14.01,2013-05-25 20:09:00,
2013-05-25 13:14:00,58.0,49.8,30.11,NNW,328,10.0,10.0,74,0.00,,,0.00,949.00,VWS V14.01,2013-05-25 20:14:00,
2013-05-25 13:19:00,57.6,49.4,30.10,NW,322,5.0,10.0,74,0.00,,,0.00,949.00,VWS V14.01,2013-05-25 20:19:00,
2013-05-25 13:24:00,57.4,49.5,30.10,WNW,291,1.0,10.0,75,0.00,,,0.00,949.00,VWS V14.01,2013-05-25 20:24:00,
2013-05-25 13:29:00,57.6,49.8,30.11,SW,233,5.0,11.0,75,0.00,,,0.00,947.00,VWS V14.01,2013-05-25 20:29:00,
2013-05-25 13:34:00,57.6,49.8,30.11,West,277,9.0,13.0,75,0.00,,,0.00,946.00,VWS V14.01,2013-05-25 20:34:00,
2013-05-25 13:39:00,57.4,49.5,30.10,West,259,6.0,13.0,75,0.00,,,0.00,942.00,VWS V14.01,2013-05-25 20:39:00,
2013-05-25 13:44:00,57.7,49.8,30.10,WSW,254,7.0,12.0,75,0.00,,,0.00,940.00,VWS V14.01,2013-05-25 20:44:00,
2013-05-25 13:49:00,57.8,49.9,30.10,NW,317,6.0,12.0,75,0.00,,,0.00,937.00,VWS V14.01,2013-05-25 20:49:00,
2013-05-25 13:54:00,57.4,49.5,30.10,SSW,213,1.0,13.0,75,0.00,,,0.00,935.00,VWS V14.01,2013-05-25 20:54:00,
2013-05-25 13:59:00,57.3,49.1,30.10,WNW,289,4.0,13.0,74,0.00,,,0.00,926.00,VWS V14.01,2013-05-25 20:59:00,
2013-05-25 14:04:00,57.0,49.5,30.10,West,274,7.0,10.0,76,0.00,,,0.00,925.00,VWS V14.01,2013-05-25 21:04:00,
2013-05-25 14:09:00,57.8,50.7,30.10,NW,310,6.0,10.0,77,0.00,,,0.00,919.00,VWS V14.01,2013-05-25 21:09:00,
2013-05-25 14:14:00,57.8,49.9,30.11,WNW,302,7.0,11.0,75,0.00,,,0.00,912.00,VWS V14.01,2013-05-25 21:14:00,
2013-05-25 14:19:00,57.7,49.5,30.10,West,274,9.0,11.0,74,0.00,,,0.00,907.00,VWS V14.01,2013-05-25 21:19:00,
2013-05-25 14:24:00,57.5,49.7,30.10,West,262,5.0,9.0,75,0.00,,,0.00,902.00,VWS V14.01,2013-05-25 21:24:00,
2013-05-25 14:29:00,57.1,49.6,30.10,NW,318,4.0,13.0,76,0.00,,,0.00,898.00,VWS V14.01,2013-05-25 21:29:00,
2013-05-25 14:34:00,57.0,49.2,30.10,West,262,8.0,11.0,75,0.00,,,0.00,889.00,VWS V14.01,2013-05-25 21:34:00,
2013-05-25 14:39:00,57.0,49.5,30.10,South,191,4.0,11.0,76,0.00,,,0.00,879.00,VWS V14.01,2013-05-25 21:39:00,
2013-05-25 14:44:00,57.3,49.8,30.10,WNW,298,4.0,12.0,76,0.00,,,0.00,875.00,VWS V14.01,2013-05-25 21:44:00,
2013-05-25 14:49:00,58.0,50.1,30.10,WNW,283,5.0,12.0,75,0.00,,,0.00,874.00,VWS V14.01,2013-05-25 21:49:00,
2013-05-25 14:54:00,57.7,50.2,30.10,WNW,297,7.0,10.0,76,0.00,,,0.00,860.00,VWS V14.01,2013-05-25 21:54:00,
2013-05-25 14:59:00,58.1,50.6,30.10,WSW,244,8.0,13.0,76,0.00,,,0.00,860.00,VWS V14.01,2013-05-25 21:59:00,
2013-05-25 15:04:00,58.1,50.6,30.10,WNW,283,6.0,9.0,76,0.00,,,0.00,846.00,VWS V14.01,2013-05-25 22:04:00,
2013-05-25 15:09:00,57.8,50.3,30.11,NW,304,9.0,10.0,76,0.00,,,0.00,888.00,VWS V14.01,2013-05-25 22:09:00,
2013-05-25 15:14:00,57.4,49.9,30.11,West,274,5.0,12.0,76,0.00,,,0.00,889.00,VWS V14.01,2013-05-25 22:14:00,
2013-05-25 15:19:00,57.6,50.5,30.10,WSW,254,0.0,12.0,77,0.00,,,0.00,947.00,VWS V14.01,2013-05-25 22:19:00,
2013-05-25 15:24:00,58.3,50.4,30.10,WNW,291,5.0,8.0,75,0.00,,,0.00,826.00,VWS V14.01,2013-05-25 22:24:00,
2013-05-25 15:29:00,57.8,49.9,30.10,WSW,249,7.0,14.0,75,0.00,,,0.00,810.00,VWS V14.01,2013-05-25 22:29:00,
2013-05-25 15:34:00,57.8,50.3,30.10,NW,304,4.0,10.0,76,0.00,,,0.00,803.00,VWS V14.01,2013-05-25 22:34:00,
2013-05-25 15:39:00,57.9,50.4,30.10,West,277,6.0,10.0,76,0.00,,,0.00,805.00,VWS V14.01,2013-05-25 22:39:00,
2013-05-25 15:44:00,58.0,50.1,30.10,West,272,6.0,9.0,75,0.00,,,0.00,489.00,VWS V14.01,2013-05-25 22:44:00,
2013-05-25 15:49:00,57.6,50.1,30.10,SE,133,4.0,10.0,76,0.00,,,0.00,512.00,VWS V14.01,2013-05-25 22:49:00,
2013-05-25 15:54:00,57.5,50.0,30.10,West,265,8.0,8.0,76,0.00,,,0.00,712.00,VWS V14.01,2013-05-25 22:54:00,
2013-05-25 15:59:00,58.0,50.8,30.10,NW,309,1.0,8.0,77,0.00,,,0.00,575.00,VWS V14.01,2013-05-25 22:59:00,
2013-05-25 16:04:00,58.5,50.6,30.10,NW,314,11.0,11.0,75,0.00,,,0.00,722.00,VWS V14.01,2013-05-25 23:04:00,
2013-05-25 16:09:00,57.8,49.9,30.10,West,259,5.0,11.0,75,0.00,,,0.00,700.00,VWS V14.01,2013-05-25 23:09:00,
2013-05-25 16:15:00,57.9,50.4,30.10,SSW,212,4.0,7.0,76,0.00,,,0.00,633.00,VWS V14.01,2013-05-25 23:15:00,
2013-05-25 16:20:00,58.0,50.8,30.10,SE,129,3.0,7.0,77,0.00,,,0.00,703.00,VWS V14.01,2013-05-25 23:20:00,
2013-05-25 16:25:00,58.2,50.7,30.09,West,260,5.0,7.0,76,0.00,,,0.00,663.00,VWS V14.01,2013-05-25 23:25:00,
2013-05-25 16:30:00,58.2,50.3,30.09,WNW,299,6.0,12.0,75,0.00,,,0.00,661.00,VWS V14.01,2013-05-25 23:30:00,
2013-05-25 16:35:00,57.8,50.7,30.09,WNW,291,5.0,9.0,77,0.00,,,0.00,561.00,VWS V14.01,2013-05-25 23:35:00,
2013-05-25 16:40:00,57.6,50.5,30.09,WNW,291,3.0,11.0,77,0.00,,,0.00,582.00,VWS V14.01,2013-05-25 23:40:00,
2013-05-25 16:45:00,58.0,50.5,30.09,West,267,6.0,11.0,76,0.00,,,0.00,348.00,VWS V14.01,2013-05-25 23:45:00,
2013-05-25 16:50:00,57.7,50.5,30.09,SW,220,1.0,11.0,77,0.00,,,0.00,320.00,VWS V14.01,2013-05-25 23:50:00,
2013-05-25 16:55:00,57.3,50.5,30.09,WSW,254,3.0,10.0,78,0.00,,,0.00,285.00,VWS V14.01,2013-05-25 23:55:00,
2013-05-25 17:00:00,57.2,50.4,30.09,West,265,2.0,10.0,78,0.00,,,0.00,309.00,VWS V14.01,2013-05-26 00:00:00,
2013-05-25 17:05:00,57.6,50.8,30.09,NW,312,5.0,6.0,78,0.00,,,0.00,315.00,VWS V14.01,2013-05-26 00:05:00,
2013-05-25 17:10:00,57.5,50.4,30.09,WSW,244,3.0,12.0,77,0.00,,,0.00,383.00,VWS V14.01,2013-05-26 00:10:00,
2013-05-25 17:15:00,57.3,50.5,30.09,WSW,258,5.0,8.0,78,0.00,,,0.00,253.00,VWS V14.01,2013-05-26 00:15:00,
2013-05-25 17:20:00,57.2,50.8,30.09,WSW,238,1.0,8.0,79,0.00,,,0.00,366.00,VWS V14.01,2013-05-26 00:20:00,
2013-05-25 17:25:00,57.5,50.7,30.09,WNW,283,7.0,7.0,78,0.00,,,0.00,360.00,VWS V14.01,2013-05-26 00:25:00,
2013-05-25 17:30:00,57.1,50.7,30.09,WSW,237,4.0,8.0,79,0.00,,,0.00,390.00,VWS V14.01,2013-05-26 00:30:00,
2013-05-25 17:35:00,56.9,50.5,30.09,WNW,285,9.0,9.0,79,0.00,,,0.00,269.00,VWS V14.01,2013-05-26 00:35:00,
2013-05-25 17:40:00,56.8,50.4,30.09,WNW,302,5.0,9.0,79,0.00,,,0.00,272.00,VWS V14.01,2013-05-26 00:40:00,
2013-05-25 17:45:00,56.6,50.5,30.09,NW,312,6.0,7.0,80,0.00,,,0.00,221.00,VWS V14.01,2013-05-26 00:45:00,
2013-05-25 17:50:00,56.4,50.3,30.09,WNW,288,5.0,7.0,80,0.00,,,0.00,181.00,VWS V14.01,2013-05-26 00:50:00,
2013-05-25 17:55:00,56.0,49.9,30.09,West,269,0.0,9.0,80,0.00,,,0.00,172.00,VWS V14.01,2013-05-26 00:55:00,
2013-05-25 18:00:00,55.8,50.1,30.09,WNW,293,1.0,9.0,81,0.00,,,0.00,221.00,VWS V14.01,2013-05-26 01:00:00,
2013-05-25 18:05:00,55.8,50.1,30.09,WNW,293,1.0,7.0,81,0.00,,,0.00,258.00,VWS V14.01,2013-05-26 01:05:00,
2013-05-25 18:10:00,56.1,50.4,30.09,SW,232,1.0,7.0,81,0.00,,,0.00,200.00,VWS V14.01,2013-05-26 01:10:00,
2013-05-25 18:15:00,56.1,50.4,30.09,West,265,4.0,8.0,81,0.00,,,0.00,290.00,VWS V14.01,2013-05-26 01:15:00,
2013-05-25 18:20:00,56.4,50.7,30.09,WNW,284,5.0,9.0,81,0.00,,,0.00,424.00,VWS V14.01,2013-05-26 01:20:00,
2013-05-25 18:25:00,56.9,50.8,30.08,WSW,251,4.0,7.0,80,0.00,,,0.00,452.00,VWS V14.01,2013-05-26 01:25:00,
2013-05-25 18:30:00,57.5,51.4,30.08,SW,216,3.0,10.0,80,0.00,,,0.00,373.00,VWS V14.01,2013-05-26 01:30:00,
2013-05-25 18:35:00,57.0,50.2,30.08,WNW,285,9.0,9.0,78,0.00,,,0.00,281.00,VWS V14.01,2013-05-26 01:35:00,
2013-05-25 18:40:00,55.9,49.8,30.08,WNW,293,4.0,7.0,80,0.00,,,0.00,76.00,VWS V14.01,2013-05-26 01:40:00,
2013-05-25 18:45:00,55.1,49.7,30.08,West,276,5.0,9.0,82,0.00,,,0.00,46.00,VWS V14.01,2013-05-26 01:45:00,
2013-05-25 18:50:00,54.6,49.5,30.08,WNW,286,1.0,3.0,83,0.00,,,0.00,51.00,VWS V14.01,2013-05-26 01:50:00,
2013-05-25 18:55:00,54.4,49.7,30.08,West,275,5.0,7.0,84,0.00,,,0.00,62.00,VWS V14.01,2013-05-26 01:55:00,
2013-05-25 19:00:00,54.6,50.2,30.08,SSE,162,3.0,3.0,85,0.00,,,0.00,207.00,VWS V14.01,2013-05-26 02:00:00,
2013-05-25 19:05:00,55.2,50.8,30.09,WNW,288,0.0,7.0,85,0.00,,,0.00,234.00,VWS V14.01,2013-05-26 02:05:00,
2013-05-25 19:10:00,55.9,51.1,30.09,SSE,161,0.0,2.0,84,0.00,,,0.00,221.00,VWS V14.01,2013-05-26 02:10:00,
2013-05-25 19:15:00,56.4,51.0,30.09,WSW,256,1.0,7.0,82,0.00,,,0.00,181.00,VWS V14.01,2013-05-26 02:15:00,
2013-05-25 19:20:00,56.5,51.1,30.08,ENE,63,2.0,2.0,82,0.00,,,0.00,146.00,VWS V14.01,2013-05-26 02:20:00,
2013-05-25 19:25:00,56.4,51.0,30.08,NW,309,2.0,8.0,82,0.00,,,0.00,114.00,VWS V14.01,2013-05-26 02:25:00,
2013-05-25 19:30:00,56.3,50.9,30.07,East,99,1.0,2.0,82,0.00,,,0.00,93.00,VWS V14.01,2013-05-26 02:30:00,
2013-05-25 19:35:00,56.1,50.4,30.08,West,275,0.0,6.0,81,0.00,,,0.00,62.00,VWS V14.01,2013-05-26 02:35:00,
2013-05-25 19:40:00,55.6,50.2,30.08,NW,308,1.0,1.0,82,0.00,,,0.00,49.00,VWS V14.01,2013-05-26 02:40:00,
2013-05-25 19:45:00,55.3,50.2,30.08,SSW,204,0.0,7.0,83,0.00,,,0.00,32.00,VWS V14.01,2013-05-26 02:45:00,
2013-05-25 19:50:00,55.2,50.5,30.08,SSW,196,0.0,0.0,84,0.00,,,0.00,30.00,VWS V14.01,2013-05-26 02:50:00,
2013-05-25 19:55:00,55.0,50.3,30.08,South,176,2.0,3.0,84,0.00,,,0.00,21.00,VWS V14.01,2013-05-26 02:55:00,
2013-05-25 20:00:00,54.9,50.2,30.08,WSW,256,4.0,4.0,84,0.00,,,0.00,18.00,VWS V14.01,2013-05-26 03:00:00,
2013-05-25 20:05:00,54.5,49.8,30.08,WSW,237,1.0,6.0,84,0.00,,,0.00,11.00,VWS V14.01,2013-05-26 03:05:00,
2013-05-25 20:10:00,54.2,49.8,30.08,WSW,243,3.0,3.0,85,0.00,,,0.00,7.00,VWS V14.01,2013-05-26 03:10:00,
2013-05-25 20:15:00,53.8,49.4,30.08,West,259,5.0,7.0,85,0.00,,,0.00,5.00,VWS V14.01,2013-05-26 03:15:00,
2013-05-25 20:20:00,53.7,49.6,30.08,West,259,2.0,4.0,86,0.00,,,0.00,0.00,VWS V14.01,2013-05-26 03:20:00,
2013-05-25 20:25:00,53.5,49.7,30.08,WSW,252,1.0,6.0,87,0.00,,,0.00,0.00,VWS V14.01,2013-05-26 03:25:00,
2013-05-25 20:30:00,53.3,49.5,30.08,West,262,5.0,7.0,87,0.00,,,0.00,0.00,VWS V14.01,2013-05-26 03:30:00,
2013-05-25 20:35:00,53.2,49.4,30.08,SSW,200,2.0,12.0,87,0.00,,,0.00,0.00,VWS V14.01,2013-05-26 03:35:00,
2013-05-25 20:40:00,53.0,49.5,30.09,West,263,4.0,6.0,88,0.00,,,0.00,0.00,VWS V14.01,2013-05-26 03:40:00,
2013-05-25 20:45:00,53.0,49.5,30.08,SW,236,3.0,7.0,88,0.00,,,0.00,0.00,VWS V14.01,2013-05-26 03:45:00,
2013-05-25 20:50:00,53.0,49.5,30.09,WSW,251,2.0,7.0,88,0.00,,,0.00,0.00,VWS V14.01,2013-05-26 03:50:00,
2013-05-25 20:55:00,53.0,49.5,30.09,NNW,344,3.0,12.0,88,0.00,,,0.00,0.00,VWS V14.01,2013-05-26 03:55:00,
2013-05-25 21:00:00,52.9,49.5,30.09,West,266,8.0,9.0,88,0.00,,,0.00,0.00,VWS V14.01,2013-05-26 04:00:00,
2013-05-25 21:01:00,52.9,49.5,30.09,NNW,338,0.0,9.0,88,0.00,,,0.00,0.00,VWS V14.01,2013-05-26 04:01:00,
2013-05-25 21:02:00,52.8,49.7,30.09,WNW,292,4.0,9.0,89,0.00,,,0.00,0.00,VWS V14.01,2013-05-26 04:02:00,
2013-05-25 21:03:00,52.8,49.7,30.09,WSW,251,2.0,9.0,89,0.00,,,0.00,0.00,VWS V14.01,2013-05-26 04:03:00,
2013-05-25 21:04:00,52.9,49.8,30.09,WNW,283,3.0,9.0,89,0.00,,,0.00,0.00,VWS V14.01,2013-05-26 04:04:00,
2013-05-25 21:06:00,52.8,49.7,30.09,West,272,5.0,9.0,89,0.00,,,0.00,0.00,VWS V14.01,2013-05-26 04:06:00,
2013-05-25 21:11:00,52.8,49.7,30.09,West,277,4.0,4.0,89,0.00,,,0.00,0.00,VWS V14.01,2013-05-26 04:11:00,
2013-05-25 21:16:00,52.8,49.7,30.09,WNW,293,4.0,9.0,89,0.00,,,0.00,0.00,VWS V14.01,2013-05-26 04:16:00,
2013-05-25 21:21:00,52.7,49.5,30.10,NW,314,4.0,6.0,89,0.00,,,0.00,0.00,VWS V14.01,2013-05-26 04:21:00,
2013-05-25 21:26:00,52.7,49.8,30.10,West,270,3.0,9.0,90,0.00,,,0.00,0.00,VWS V14.01,2013-05-26 04:26:00,
2013-05-25 21:31:00,52.6,49.8,30.10,WNW,292,3.0,8.0,90,0.00,,,0.00,0.00,VWS V14.01,2013-05-26 04:31:00,
2013-05-25 21:36:00,52.6,49.8,30.10,NW,306,1.0,8.0,90,0.00,,,0.00,0.00,VWS V14.01,2013-05-26 04:36:00,
2013-05-25 21:41:00,52.6,49.8,30.11,NW,306,5.0,10.0,90,0.00,,,0.00,0.00,VWS V14.01,2013-05-26 04:41:00,
2013-05-25 21:46:00,52.6,49.8,30.11,NW,325,4.0,10.0,90,0.00,,,0.00,0.00,VWS V14.01,2013-05-26 04:46:00,
2013-05-25 21:51:00,52.6,50.0,30.11,NNW,338,2.0,7.0,91,0.00,,,0.00,0.00,VWS V14.01,2013-05-26 04:51:00,
2013-05-25 21:56:00,52.5,50.0,30.11,WNW,291,4.0,7.0,91,0.00,,,0.00,0.00,VWS V14.01,2013-05-26 04:56:00,
2013-05-25 22:01:00,52.6,50.0,30.11,West,272,4.0,6.0,91,0.00,,,0.00,0.00,VWS V14.01,2013-05-26 05:01:00,
2013-05-25 22:06:00,52.5,50.0,30.11,West,266,5.0,7.0,91,0.00,,,0.00,0.00,VWS V14.01,2013-05-26 05:06:00,
2013-05-25 22:11:00,52.5,50.0,30.11,West,264,6.0,9.0,91,0.00,,,0.00,0.00,VWS V14.01,2013-05-26 05:11:00,
2013-05-25 22:16:00,52.5,50.0,30.12,NW,309,2.0,9.0,91,0.00,,,0.00,0.00,VWS V14.01,2013-05-26 05:16:00,
2013-05-25 22:21:00,52.5,50.0,30.12,SW,236,5.0,5.0,91,0.00,,,0.00,0.00,VWS V14.01,2013-05-26 05:21:00,
2013-05-25 22:26:00,52.5,50.0,30.12,WNW,293,2.0,8.0,91,0.00,,,0.00,0.00,VWS V14.01,2013-05-26 05:26:00,
2013-05-25 22:31:00,52.5,50.0,30.12,NW,323,4.0,8.0,91,0.00,,,0.00,0.00,VWS V14.01,2013-05-26 05:31:00,
2013-05-25 22:36:00,52.5,50.0,30.12,West,280,4.0,8.0,91,0.00,,,0.00,0.00,VWS V14.01,2013-05-26 05:36:00,
2013-05-25 22:41:00,52.5,50.0,30.12,WNW,287,3.0,5.0,91,0.00,,,0.00,0.00,VWS V14.01,2013-05-26 05:41:00,
2013-05-25 22:46:00,52.5,50.0,30.12,NW,320,2.0,10.0,91,0.00,,,0.00,0.00,VWS V14.01,2013-05-26 05:46:00,
2013-05-25 22:51:00,52.5,50.0,30.12,West,268,0.0,9.0,91,0.00,,,0.00,0.00,VWS V14.01,2013-05-26 05:51:00,
2013-05-25 22:57:00,52.5,50.2,30.12,NNW,331,4.0,9.0,92,0.00,,,0.00,0.00,VWS V14.01,2013-05-26 05:57:00,
2013-05-25 23:02:00,52.5,50.2,30.12,NW,321,4.0,7.0,92,0.00,,,0.00,0.00,VWS V14.01,2013-05-26 06:02:00,
2013-05-25 23:07:00,52.5,50.2,30.12,West,280,5.0,8.0,92,0.00,,,0.00,0.00,VWS V14.01,2013-05-26 06:07:00,
2013-05-25 23:12:00,52.4,50.2,30.12,West,281,0.0,4.0,92,0.00,,,0.00,0.00,VWS V14.01,2013-05-26 06:12:00,
2013-05-25 23:17:00,52.4,50.2,30.12,WNW,283,2.0,9.0,92,0.00,,,0.00,0.00,VWS V14.01,2013-05-26 06:17:00,
2013-05-25 23:22:00,52.5,50.2,30.12,West,272,3.0,8.0,92,0.00,,,0.00,0.00,VWS V14.01,2013-05-26 06:22:00,
2013-05-25 23:27:00,52.4,50.2,30.12,West,276,4.0,8.0,92,0.00,,,0.00,0.00,VWS V14.01,2013-05-26 06:27:00,
2013-05-25 23:32:00,52.4,50.2,30.12,West,273,2.0,7.0,92,0.00,,,0.00,0.00,VWS V14.01,2013-05-26 06:32:00,
2013-05-25 23:37:00,52.4,50.2,30.12,WNW,292,3.0,9.0,92,0.00,,,0.00,0.00,VWS V14.01,2013-05-26 06:37:00,
2013-05-25 23:42:00,52.3,50.0,30.12,WNW,282,4.0,6.0,92,0.00,,,0.00,0.00,VWS V14.01,2013-05-26 06:42:00,
2013-05-25 23:47:00,52.3,50.0,30.12,West,277,2.0,7.0,92,0.00,,,0.00,0.00,VWS V14.01,2013-05-26 06:47:00,
2013-05-25 23:52:00,52.3,50.0,30.12,West,263,2.0,7.0,92,0.00,,,0.00,0.00,VWS V14.01,2013-05-26 06:52:00,
2013-05-25 23:57:00,52.3,50.0,30.12,West,270,3.0,7.0,92,0.00,,,0.00,0.00,VWS V14.01,2013-05-26 06:57:00,